Location: South Troy
(42.7009°N, 73.6726°W)
Time: 15:52:59
(UTC+00:00)

ATLAS CENTAUR R/B - Pass Details

Date: 20 September 2024
Orbit: 424 x 568 km, 64.6° (Epoch: 08 October)

Event Time Altitude Azimuth Distance (km) Brightness Sun altitude
Rises 23:44:58 0° 249° (WSW) 2,447 5.7 -10.0°
Reaches altitude 10° 23:47:25 10° 267° (W) 1,604 5.1 -10.5°
Maximum altitude 23:50:08 20° 316° (NW) 1,145 3.7 -11.0°
Drops below altitude 10° 23:52:58 10° 6° (N) 1,678 3.9 -11.5°
Sets 23:55:37 0° 24° (NNE) 2,599 4.6 -12.0°
